Year,Month,Day,Hour,Minute,Value (Times are PST for temperature in C)
2014,09,14,00,00,13.70
2014,09,14,00,01,13.70
2014,09,14,00,02,13.60
2014,09,14,00,03,13.60
2014,09,14,00,04,13.60
2014,09,14,00,05,13.60
2014,09,14,00,06,13.60
2014,09,14,00,07,13.50
2014,09,14,00,08,13.50
2014,09,14,00,09,13.50
2014,09,14,00,10,13.40
2014,09,14,00,11,13.40
2014,09,14,00,12,13.40
2014,09,14,00,13,13.40
2014,09,14,00,14,13.30
2014,09,14,00,15,13.30
2014,09,14,00,16,13.30
2014,09,14,00,17,13.30
2014,09,14,00,18,13.30
2014,09,14,00,19,13.20
2014,09,14,00,20,13.20
2014,09,14,00,21,13.20
2014,09,14,00,22,13.20
2014,09,14,00,23,13.10
2014,09,14,00,24,13.10
2014,09,14,00,25,13.10
2014,09,14,00,26,13.10
2014,09,14,00,27,13.00
2014,09,14,00,28,13.00
2014,09,14,00,29,12.90
2014,09,14,00,30,12.90
2014,09,14,00,31,12.90
2014,09,14,00,32,12.80
2014,09,14,00,33,12.80
2014,09,14,00,34,12.80
2014,09,14,00,35,12.80
2014,09,14,00,36,12.70
2014,09,14,00,37,12.70
2014,09,14,00,38,12.70
2014,09,14,00,39,12.70
2014,09,14,00,40,12.70
2014,09,14,00,41,12.60
2014,09,14,00,42,12.60
2014,09,14,00,43,12.60
2014,09,14,00,44,12.60
2014,09,14,00,45,12.60
2014,09,14,00,46,12.50
2014,09,14,00,47,12.50
2014,09,14,00,48,12.40
2014,09,14,00,49,12.40
2014,09,14,00,50,12.40
2014,09,14,00,51,12.30
2014,09,14,00,52,12.30
2014,09,14,00,53,12.30
2014,09,14,00,54,12.30
2014,09,14,00,55,12.30
2014,09,14,00,56,12.20
2014,09,14,00,57,12.20
2014,09,14,00,58,12.20
2014,09,14,00,59,12.10
2014,09,14,01,00,12.10
2014,09,14,01,01,12.10
2014,09,14,01,02,12.10
2014,09,14,01,03,12.00
2014,09,14,01,04,12.00
2014,09,14,01,05,11.90
2014,09,14,01,06,11.90
2014,09,14,01,07,11.90
2014,09,14,01,08,11.90
2014,09,14,01,09,11.90
2014,09,14,01,10,11.90
2014,09,14,01,11,11.80
2014,09,14,01,12,11.80
2014,09,14,01,13,11.80
2014,09,14,01,14,11.80
2014,09,14,01,15,11.80
2014,09,14,01,16,11.80
2014,09,14,01,17,11.80
2014,09,14,01,18,11.80
2014,09,14,01,19,11.80
2014,09,14,01,20,11.80
2014,09,14,01,21,11.80
2014,09,14,01,22,11.80
2014,09,14,01,23,11.70
2014,09,14,01,24,11.70
2014,09,14,01,25,11.70
2014,09,14,01,26,11.70
2014,09,14,01,27,11.70
2014,09,14,01,28,11.70
2014,09,14,01,29,11.70
2014,09,14,01,30,11.70
2014,09,14,01,31,11.60
2014,09,14,01,33,11.60
2014,09,14,01,34,11.60
2014,09,14,01,35,11.50
2014,09,14,01,36,11.50
2014,09,14,01,37,11.50
2014,09,14,01,38,11.40
2014,09,14,01,39,11.40
2014,09,14,01,40,11.40
2014,09,14,01,41,11.40
2014,09,14,01,42,11.30
2014,09,14,01,43,11.30
2014,09,14,01,44,11.30
2014,09,14,01,45,11.30
2014,09,14,01,46,11.30
2014,09,14,01,47,11.30
2014,09,14,01,48,11.30
2014,09,14,01,49,11.20
2014,09,14,01,50,11.20
2014,09,14,01,52,11.20
2014,09,14,01,53,11.20
2014,09,14,01,54,11.20
2014,09,14,01,55,11.20
2014,09,14,01,56,11.20
2014,09,14,01,57,11.20
2014,09,14,01,58,11.20
2014,09,14,02,00,11.10
2014,09,14,02,01,11.10
2014,09,14,02,02,11.10
2014,09,14,02,03,11.10
2014,09,14,02,04,11.10
2014,09,14,02,05,11.10
2014,09,14,02,06,11.10
2014,09,14,02,07,11.00
2014,09,14,02,08,11.00
2014,09,14,02,09,11.00
2014,09,14,02,10,11.00
2014,09,14,02,11,11.00
2014,09,14,02,12,10.90
2014,09,14,02,13,10.90
2014,09,14,02,14,10.90
2014,09,14,02,15,10.90
2014,09,14,02,16,10.90
2014,09,14,02,17,10.90
2014,09,14,02,18,10.90
2014,09,14,02,19,10.90
2014,09,14,02,20,10.90
2014,09,14,02,21,10.90
2014,09,14,02,22,10.90
2014,09,14,02,23,10.90
2014,09,14,02,24,10.90
2014,09,14,02,25,10.90
2014,09,14,02,26,10.80
2014,09,14,02,27,10.80
2014,09,14,02,28,10.80
2014,09,14,02,29,10.80
2014,09,14,02,30,10.70
2014,09,14,02,31,10.70
2014,09,14,02,32,10.70
2014,09,14,02,33,10.60
2014,09,14,02,34,10.60
2014,09,14,02,35,10.60
2014,09,14,02,36,10.60
2014,09,14,02,37,10.50
2014,09,14,02,38,10.40
2014,09,14,02,39,10.40
2014,09,14,02,40,10.40
2014,09,14,02,41,10.40
2014,09,14,02,42,10.30
2014,09,14,02,43,10.30
2014,09,14,02,44,10.30
2014,09,14,02,45,10.30
2014,09,14,02,46,10.30
2014,09,14,02,47,10.20
2014,09,14,02,48,10.20
2014,09,14,02,49,10.20
2014,09,14,02,50,10.20
2014,09,14,02,51,10.20
2014,09,14,02,52,10.20
2014,09,14,02,53,10.20
2014,09,14,02,54,10.10
2014,09,14,02,55,10.10
2014,09,14,02,56,10.20
2014,09,14,02,57,10.10
2014,09,14,02,58,10.20
2014,09,14,02,59,10.20
2014,09,14,03,00,10.20
2014,09,14,03,01,10.20
2014,09,14,03,02,10.20
2014,09,14,03,03,10.20
2014,09,14,03,04,10.20
2014,09,14,03,05,10.20
2014,09,14,03,06,10.20
2014,09,14,03,07,10.20
2014,09,14,03,08,10.20
2014,09,14,03,09,10.10
2014,09,14,03,10,10.10
2014,09,14,03,11,10.10
2014,09,14,03,12,10.10
2014,09,14,03,13,10.00
2014,09,14,03,14,10.00
2014,09,14,03,15,9.90
2014,09,14,03,16,9.90
2014,09,14,03,17,9.90
2014,09,14,03,18,9.80
2014,09,14,03,19,9.80
2014,09,14,03,20,9.80
2014,09,14,03,21,9.80
2014,09,14,03,22,9.70
2014,09,14,03,23,9.70
2014,09,14,03,24,9.70
2014,09,14,03,25,9.70
2014,09,14,03,26,9.70
2014,09,14,03,27,9.60
2014,09,14,03,28,9.60
2014,09,14,03,29,9.60
2014,09,14,03,30,9.60
2014,09,14,03,31,9.60
2014,09,14,03,32,9.50
2014,09,14,03,33,9.50
2014,09,14,03,34,9.50
2014,09,14,03,35,9.50
2014,09,14,03,36,9.40
2014,09,14,03,37,9.40
2014,09,14,03,38,9.40
2014,09,14,03,39,9.40
2014,09,14,03,40,9.40
2014,09,14,03,41,9.40
2014,09,14,03,42,9.40
2014,09,14,03,43,9.40
2014,09,14,03,44,9.40
2014,09,14,03,45,9.30
2014,09,14,03,46,9.30
2014,09,14,03,47,9.30
2014,09,14,03,48,9.30
2014,09,14,03,49,9.30
2014,09,14,03,50,9.30
2014,09,14,03,51,9.30
2014,09,14,03,52,9.30
2014,09,14,03,53,9.30
2014,09,14,03,54,9.20
2014,09,14,03,55,9.20
2014,09,14,03,56,9.20
2014,09,14,03,57,9.20
2014,09,14,03,58,9.20
2014,09,14,03,59,9.20
2014,09,14,04,00,9.20
2014,09,14,04,01,9.10
2014,09,14,04,02,9.10
2014,09,14,04,03,9.10
2014,09,14,04,04,9.10
2014,09,14,04,05,9.10
2014,09,14,04,06,9.10
2014,09,14,04,07,9.10
2014,09,14,04,08,9.10
2014,09,14,04,09,9.10
2014,09,14,04,10,9.10
2014,09,14,04,11,9.10
2014,09,14,04,12,9.10
2014,09,14,04,13,9.10
2014,09,14,04,14,9.10
2014,09,14,04,15,9.10
2014,09,14,04,16,9.10
2014,09,14,04,17,9.00
2014,09,14,04,18,9.10
2014,09,14,04,19,9.00
2014,09,14,04,20,9.00
2014,09,14,04,21,9.00
2014,09,14,04,22,9.00
2014,09,14,04,23,8.90
2014,09,14,04,24,8.90
2014,09,14,04,25,8.90
2014,09,14,04,26,8.90
2014,09,14,04,27,8.90
2014,09,14,04,28,8.90
2014,09,14,04,29,8.90
2014,09,14,04,30,8.90
2014,09,14,04,31,8.90
2014,09,14,04,32,8.80
2014,09,14,04,33,8.80
2014,09,14,04,34,8.80
2014,09,14,04,35,8.80
2014,09,14,04,36,8.80
2014,09,14,04,37,8.80
2014,09,14,04,38,8.80
2014,09,14,04,39,8.80
2014,09,14,04,40,8.80
2014,09,14,04,41,8.80
2014,09,14,04,42,8.70
2014,09,14,04,43,8.70
2014,09,14,04,45,8.70
2014,09,14,04,46,8.70
2014,09,14,04,47,8.70
2014,09,14,04,48,8.70
2014,09,14,04,49,8.70
2014,09,14,04,50,8.60
2014,09,14,04,51,8.60
2014,09,14,04,52,8.60
2014,09,14,04,53,8.60
2014,09,14,04,54,8.60
2014,09,14,04,55,8.60
2014,09,14,04,56,8.60
2014,09,14,04,57,8.60
2014,09,14,04,58,8.50
2014,09,14,04,59,8.50
2014,09,14,05,00,8.50
2014,09,14,05,02,8.40
2014,09,14,05,03,8.40
2014,09,14,05,04,8.40
2014,09,14,05,05,8.40
2014,09,14,05,06,8.40
2014,09,14,05,07,8.40
2014,09,14,05,08,8.40
2014,09,14,05,09,8.40
2014,09,14,05,10,8.30
2014,09,14,05,11,8.40
2014,09,14,05,13,8.30
2014,09,14,05,14,8.30
2014,09,14,05,15,8.30
2014,09,14,05,16,8.30
2014,09,14,05,17,8.30
2014,09,14,05,18,8.30
2014,09,14,05,19,8.30
2014,09,14,05,20,8.30
2014,09,14,05,21,8.30
2014,09,14,05,22,8.30
2014,09,14,05,23,8.30
2014,09,14,05,24,8.30
2014,09,14,05,25,8.30
2014,09,14,05,26,8.30
2014,09,14,05,27,8.30
2014,09,14,05,28,8.20
2014,09,14,05,29,8.20
2014,09,14,05,30,8.20
2014,09,14,05,31,8.20
2014,09,14,05,33,8.20
2014,09,14,05,34,8.20
2014,09,14,05,35,8.10
2014,09,14,05,36,8.10
2014,09,14,05,37,8.10
2014,09,14,05,38,8.10
2014,09,14,05,39,8.10
2014,09,14,05,40,8.10
2014,09,14,05,41,8.00
2014,09,14,05,42,8.00
2014,09,14,05,43,8.00
2014,09,14,05,44,8.00
2014,09,14,05,45,7.90
2014,09,14,05,46,7.90
2014,09,14,05,47,7.90
2014,09,14,05,48,7.90
2014,09,14,05,49,7.90
2014,09,14,05,50,7.90
2014,09,14,05,51,7.80
2014,09,14,05,52,7.80
2014,09,14,05,53,7.80
2014,09,14,05,54,7.80
2014,09,14,05,55,7.80
2014,09,14,05,56,7.80
2014,09,14,05,57,7.80
2014,09,14,05,58,7.80
2014,09,14,05,59,7.80
2014,09,14,06,00,7.70
2014,09,14,06,01,7.70
2014,09,14,06,02,7.70
2014,09,14,06,03,7.70
2014,09,14,06,04,7.70
2014,09,14,06,05,7.70
2014,09,14,06,06,7.70
2014,09,14,06,07,7.70
2014,09,14,06,08,7.70
2014,09,14,06,09,7.70
2014,09,14,06,10,7.70
2014,09,14,06,11,7.70
2014,09,14,06,12,7.70
2014,09,14,06,13,7.70
2014,09,14,06,14,7.70
2014,09,14,06,15,7.70
2014,09,14,06,16,7.70
2014,09,14,06,17,7.70
2014,09,14,06,18,7.70
2014,09,14,06,19,7.70
2014,09,14,06,20,7.70
2014,09,14,06,21,7.70
2014,09,14,06,22,7.70
2014,09,14,06,23,7.70
2014,09,14,06,24,7.70
2014,09,14,06,25,7.70
2014,09,14,06,26,7.70
2014,09,14,06,27,7.70
2014,09,14,06,28,7.70
2014,09,14,06,29,7.60
2014,09,14,06,30,7.60
2014,09,14,06,31,7.60
2014,09,14,06,32,7.60
2014,09,14,06,33,7.60
2014,09,14,06,34,7.60
2014,09,14,06,35,7.50
2014,09,14,06,36,7.50
2014,09,14,06,37,7.50
2014,09,14,06,38,7.50
2014,09,14,06,39,7.40
2014,09,14,06,40,7.40
2014,09,14,06,41,7.40
2014,09,14,06,42,7.40
2014,09,14,06,43,7.40
2014,09,14,06,44,7.40
2014,09,14,06,45,7.40
2014,09,14,06,46,7.30
2014,09,14,06,47,7.30
2014,09,14,06,48,7.30
2014,09,14,06,49,7.30
2014,09,14,06,50,7.30
2014,09,14,06,51,7.30
2014,09,14,06,52,7.30
2014,09,14,06,53,7.30
2014,09,14,06,54,7.30
2014,09,14,06,55,7.30
2014,09,14,06,56,7.30
2014,09,14,06,57,7.30
2014,09,14,06,58,7.30
2014,09,14,06,59,7.30
2014,09,14,07,00,7.30
2014,09,14,07,01,7.30
2014,09,14,07,02,7.30
2014,09,14,07,03,7.30
2014,09,14,07,04,7.30
2014,09,14,07,05,7.30
2014,09,14,07,06,7.30
2014,09,14,07,07,7.30
2014,09,14,07,08,7.30
2014,09,14,07,09,7.30
2014,09,14,07,10,7.30
2014,09,14,07,11,7.30
2014,09,14,07,12,7.30
2014,09,14,07,13,7.30
2014,09,14,07,14,7.30
2014,09,14,07,15,7.30
2014,09,14,07,16,7.30
2014,09,14,07,17,7.30
2014,09,14,07,19,7.30
2014,09,14,07,20,7.30
2014,09,14,07,21,7.30
2014,09,14,07,22,7.30
2014,09,14,07,23,7.30
2014,09,14,07,24,7.30
2014,09,14,07,25,7.30
2014,09,14,07,26,7.30
2014,09,14,07,27,7.30
2014,09,14,07,28,7.30
2014,09,14,07,29,7.30
2014,09,14,07,30,7.30
2014,09,14,07,31,7.30
2014,09,14,07,32,7.30
2014,09,14,07,33,7.30
2014,09,14,07,34,7.30
2014,09,14,07,35,7.30
2014,09,14,07,36,7.30
2014,09,14,07,37,7.30
2014,09,14,07,38,7.30
2014,09,14,07,39,7.30
2014,09,14,07,40,7.30
2014,09,14,07,41,7.30
2014,09,14,07,42,7.30
2014,09,14,07,43,7.40
2014,09,14,07,44,7.40
2014,09,14,07,45,7.40
2014,09,14,07,46,7.40
2014,09,14,07,47,7.40
2014,09,14,07,48,7.40
2014,09,14,07,49,7.50
2014,09,14,07,50,7.50
2014,09,14,07,51,7.50
2014,09,14,07,52,7.60
2014,09,14,07,53,7.60
2014,09,14,07,54,7.60
2014,09,14,07,55,7.60
2014,09,14,07,56,7.60
2014,09,14,07,57,7.70
2014,09,14,07,58,7.70
2014,09,14,07,59,7.70
2014,09,14,08,00,7.80
2014,09,14,08,01,7.80
2014,09,14,08,02,7.80
2014,09,14,08,04,7.90
2014,09,14,08,05,8.00
2014,09,14,08,06,8.10
2014,09,14,08,07,8.10
2014,09,14,08,08,8.20
2014,09,14,08,09,8.20
2014,09,14,08,10,8.30
2014,09,14,08,11,8.30
2014,09,14,08,12,8.40
2014,09,14,08,13,8.40
2014,09,14,08,14,8.40
2014,09,14,08,15,8.50
2014,09,14,08,16,8.60
2014,09,14,08,17,8.70
2014,09,14,08,18,8.70
2014,09,14,08,19,8.80
2014,09,14,08,20,8.80
2014,09,14,08,21,8.90
2014,09,14,08,22,9.00
2014,09,14,08,23,9.10
2014,09,14,08,24,9.10
2014,09,14,08,25,9.20
2014,09,14,08,26,9.20
2014,09,14,08,27,9.30
2014,09,14,08,28,9.30
2014,09,14,08,29,9.40
2014,09,14,08,30,9.50
2014,09,14,08,31,9.60
2014,09,14,08,32,9.60
2014,09,14,08,33,9.70
2014,09,14,08,34,9.70
2014,09,14,08,35,9.80
2014,09,14,08,36,9.80
2014,09,14,08,37,9.90
2014,09,14,08,38,10.00
2014,09,14,08,39,10.10
2014,09,14,08,40,10.10
2014,09,14,08,41,10.20
2014,09,14,08,42,10.30
2014,09,14,08,43,10.30
2014,09,14,08,44,10.40
2014,09,14,08,45,10.40
2014,09,14,08,46,10.60
2014,09,14,08,47,10.60
2014,09,14,08,48,10.70
2014,09,14,08,49,10.70
2014,09,14,08,50,10.80
2014,09,14,08,51,10.80
2014,09,14,08,52,10.90
2014,09,14,08,53,10.90
2014,09,14,08,54,11.00
2014,09,14,08,55,11.10
2014,09,14,08,56,11.10
2014,09,14,08,57,11.20
2014,09,14,08,58,11.20
2014,09,14,08,59,11.30
2014,09,14,09,00,11.30
2014,09,14,09,01,11.40
2014,09,14,09,02,11.40
2014,09,14,09,03,11.50
2014,09,14,09,04,11.60
2014,09,14,09,05,11.70
2014,09,14,09,06,11.70
2014,09,14,09,07,11.80
2014,09,14,09,08,11.90
2014,09,14,09,09,11.90
2014,09,14,09,10,12.10
2014,09,14,09,11,12.20
2014,09,14,09,12,12.20
2014,09,14,09,13,12.30
2014,09,14,09,14,12.30
2014,09,14,09,15,12.40
2014,09,14,09,16,12.50
2014,09,14,09,17,12.60
2014,09,14,09,18,12.60
2014,09,14,09,19,12.70
2014,09,14,09,20,12.80
2014,09,14,09,21,12.80
2014,09,14,09,22,12.90
2014,09,14,09,23,13.00
2014,09,14,09,24,13.10
2014,09,14,09,25,13.20
2014,09,14,09,26,13.30
2014,09,14,09,27,13.40
2014,09,14,09,28,13.40
2014,09,14,09,29,13.60
2014,09,14,09,30,13.60
2014,09,14,09,31,13.70
2014,09,14,09,32,13.80
2014,09,14,09,33,13.90
2014,09,14,09,34,14.00
2014,09,14,09,35,14.10
2014,09,14,09,36,14.20
2014,09,14,09,37,14.20
2014,09,14,09,38,14.30
2014,09,14,09,39,14.30
2014,09,14,09,40,14.40
2014,09,14,09,41,14.40
2014,09,14,09,42,14.50
2014,09,14,09,43,14.60
2014,09,14,09,44,14.60
2014,09,14,09,45,14.70
2014,09,14,09,46,14.70
2014,09,14,09,47,14.80
2014,09,14,09,48,14.80
2014,09,14,09,50,14.90
2014,09,14,09,51,15.10
2014,09,14,09,52,15.10
2014,09,14,09,53,15.20
2014,09,14,09,54,15.30
2014,09,14,09,55,15.30
2014,09,14,09,56,15.40
2014,09,14,09,57,15.50
2014,09,14,09,58,15.60
2014,09,14,09,59,15.70
2014,09,14,10,00,15.70
2014,09,14,10,01,15.70
2014,09,14,10,02,15.80
2014,09,14,10,03,15.80
2014,09,14,10,04,15.80
2014,09,14,10,05,15.90
2014,09,14,10,06,15.90
2014,09,14,10,07,16.00
2014,09,14,10,08,16.10
2014,09,14,10,09,16.20
2014,09,14,10,10,16.20
2014,09,14,10,11,16.30
2014,09,14,10,12,16.30
2014,09,14,10,13,16.40
2014,09,14,10,14,16.50
2014,09,14,10,15,16.60
2014,09,14,10,16,16.70
2014,09,14,10,17,16.70
2014,09,14,10,18,16.80
2014,09,14,10,19,16.80
2014,09,14,10,20,16.90
2014,09,14,10,21,17.00
2014,09,14,10,22,17.10
2014,09,14,10,23,17.20
2014,09,14,10,24,17.20
2014,09,14,10,25,17.30
2014,09,14,10,26,17.30
2014,09,14,10,27,17.40
2014,09,14,10,28,17.40
2014,09,14,10,29,17.60
2014,09,14,10,30,17.70
2014,09,14,10,31,17.70
2014,09,14,10,32,17.90
2014,09,14,10,33,18.00
2014,09,14,10,34,18.10
2014,09,14,10,35,18.20
2014,09,14,10,36,18.30
2014,09,14,10,37,18.40
2014,09,14,10,38,18.40
2014,09,14,10,39,18.60
2014,09,14,10,40,18.70
2014,09,14,10,41,18.80
2014,09,14,10,42,18.80
2014,09,14,10,43,18.90
2014,09,14,10,44,19.00
2014,09,14,10,45,19.10
2014,09,14,10,46,19.20
2014,09,14,10,47,19.20
2014,09,14,10,48,19.30
2014,09,14,10,49,19.40
2014,09,14,10,50,19.40
2014,09,14,10,51,19.40
2014,09,14,10,52,19.50
2014,09,14,10,53,19.50
2014,09,14,10,54,19.50
2014,09,14,10,55,19.60
2014,09,14,10,56,19.60
2014,09,14,10,57,19.60
2014,09,14,10,58,19.60
2014,09,14,10,59,19.60
2014,09,14,11,00,19.60
2014,09,14,11,01,19.60
2014,09,14,11,02,19.60
2014,09,14,11,04,19.60
2014,09,14,11,05,19.70
2014,09,14,11,06,19.70
2014,09,14,11,07,19.80
2014,09,14,11,08,19.90
2014,09,14,11,09,20.10
2014,09,14,11,10,20.10
2014,09,14,11,11,20.20
2014,09,14,11,12,20.30
2014,09,14,11,13,20.40
2014,09,14,11,14,20.40
2014,09,14,11,15,20.50
2014,09,14,11,16,20.60
2014,09,14,11,17,20.70
2014,09,14,11,18,20.80
2014,09,14,11,19,20.90
2014,09,14,11,20,21.00
2014,09,14,11,21,21.10
2014,09,14,11,22,21.20
2014,09,14,11,23,21.20
2014,09,14,11,24,21.20
2014,09,14,11,25,21.30
2014,09,14,11,26,21.30
2014,09,14,11,27,21.30
2014,09,14,11,28,21.30
2014,09,14,11,29,21.40
2014,09,14,11,30,21.40
2014,09,14,11,31,21.50
2014,09,14,11,32,21.60
2014,09,14,11,33,21.70
2014,09,14,11,34,21.80
2014,09,14,11,36,22.00
2014,09,14,11,37,22.10
2014,09,14,11,38,22.10
2014,09,14,11,39,22.10
2014,09,14,11,40,22.10
2014,09,14,11,41,22.10
2014,09,14,11,42,22.10
2014,09,14,11,43,22.10
2014,09,14,11,44,22.10
2014,09,14,11,45,22.10
2014,09,14,11,46,22.00
2014,09,14,11,47,22.00
2014,09,14,11,48,21.90
2014,09,14,11,49,21.90
2014,09,14,11,50,21.90
2014,09,14,11,51,21.90
2014,09,14,11,52,21.90
2014,09,14,11,53,21.90
2014,09,14,11,54,21.90
2014,09,14,11,55,21.90
2014,09,14,11,56,22.00
2014,09,14,11,57,22.10
2014,09,14,11,58,22.10
2014,09,14,11,59,22.20
2014,09,14,12,00,22.20
2014,09,14,12,01,22.30
2014,09,14,12,02,22.30
2014,09,14,12,03,22.30
2014,09,14,12,04,22.30
2014,09,14,12,05,22.40
2014,09,14,12,06,22.40
2014,09,14,12,07,22.40
2014,09,14,12,08,22.40
2014,09,14,12,09,22.50
2014,09,14,12,10,22.60
2014,09,14,12,11,22.70
2014,09,14,12,12,22.70
2014,09,14,12,13,22.80
2014,09,14,12,14,22.80
2014,09,14,12,15,22.90
2014,09,14,12,16,22.90
2014,09,14,12,17,22.90
2014,09,14,12,18,22.90
2014,09,14,12,19,22.90
2014,09,14,12,20,23.00
2014,09,14,12,21,23.10
2014,09,14,12,22,23.20
2014,09,14,12,23,23.20
2014,09,14,12,24,23.30
2014,09,14,12,25,23.40
2014,09,14,12,26,23.60
2014,09,14,12,27,23.70
2014,09,14,12,28,23.80
2014,09,14,12,29,23.90
2014,09,14,12,30,24.00
2014,09,14,12,31,24.10
2014,09,14,12,32,24.10
2014,09,14,12,33,24.20
2014,09,14,12,34,24.20
2014,09,14,12,35,24.20
2014,09,14,12,36,24.20
2014,09,14,12,37,24.20
2014,09,14,12,38,24.30
2014,09,14,12,39,24.30
2014,09,14,12,40,24.40
2014,09,14,12,41,24.50
2014,09,14,12,42,24.60
2014,09,14,12,43,24.70
2014,09,14,12,44,24.70
2014,09,14,12,45,24.80
2014,09,14,12,46,24.80
2014,09,14,12,47,24.90
2014,09,14,12,48,24.90
2014,09,14,12,49,25.00
2014,09,14,12,50,25.10
2014,09,14,12,51,25.10
2014,09,14,12,52,25.10
2014,09,14,12,53,25.10
2014,09,14,12,54,25.00
2014,09,14,12,55,25.00
2014,09,14,12,56,24.90
2014,09,14,12,57,24.90
2014,09,14,12,58,24.90
2014,09,14,12,59,24.90
2014,09,14,13,00,24.90
2014,09,14,13,01,25.10
2014,09,14,13,02,25.10
2014,09,14,13,03,25.20
2014,09,14,13,04,25.20
2014,09,14,13,05,25.30
2014,09,14,13,06,25.30
2014,09,14,13,07,25.30
2014,09,14,13,08,25.40
2014,09,14,13,09,25.50
2014,09,14,13,10,25.50
2014,09,14,13,11,25.60
2014,09,14,13,12,25.60
2014,09,14,13,13,25.60
2014,09,14,13,14,25.70
2014,09,14,13,15,25.80
2014,09,14,13,16,25.90
2014,09,14,13,17,25.90
2014,09,14,13,18,26.00
2014,09,14,13,19,26.10
2014,09,14,13,20,26.10
2014,09,14,13,21,26.10
2014,09,14,13,22,26.20
2014,09,14,13,23,26.20
2014,09,14,13,24,26.30
2014,09,14,13,25,26.30
2014,09,14,13,26,26.40
2014,09,14,13,27,26.60
2014,09,14,13,28,26.60
2014,09,14,13,29,26.70
2014,09,14,13,30,26.70
2014,09,14,13,31,26.80
2014,09,14,13,32,26.80
2014,09,14,13,33,26.80
2014,09,14,13,34,26.90
2014,09,14,13,35,27.00
2014,09,14,13,36,27.10
2014,09,14,13,37,27.20
2014,09,14,13,38,27.30
2014,09,14,13,39,27.40
2014,09,14,13,40,27.60
2014,09,14,13,41,27.70
2014,09,14,13,42,27.90
2014,09,14,13,43,28.00
2014,09,14,13,44,28.10
2014,09,14,13,45,28.20
2014,09,14,13,46,28.20
2014,09,14,13,47,28.30
2014,09,14,13,48,28.30
2014,09,14,13,49,28.30
2014,09,14,13,50,28.30
2014,09,14,13,51,28.40
2014,09,14,13,52,28.40
2014,09,14,13,53,28.40
2014,09,14,13,54,28.40
2014,09,14,13,55,28.40
2014,09,14,13,56,28.60
2014,09,14,13,57,28.60
2014,09,14,13,58,28.60
2014,09,14,13,59,28.70
2014,09,14,14,00,28.70
2014,09,14,14,01,28.70
2014,09,14,14,02,28.70
2014,09,14,14,03,28.60
2014,09,14,14,04,28.60
2014,09,14,14,05,28.70
2014,09,14,14,06,28.70
2014,09,14,14,07,28.70
2014,09,14,14,08,28.80
2014,09,14,14,09,28.80
2014,09,14,14,10,28.80
2014,09,14,14,11,28.80
2014,09,14,14,12,28.80
2014,09,14,14,13,28.80
2014,09,14,14,14,28.90
2014,09,14,14,15,28.90
2014,09,14,14,16,28.90
2014,09,14,14,17,29.00
2014,09,14,14,18,29.00
2014,09,14,14,19,29.00
2014,09,14,14,20,29.00
2014,09,14,14,21,29.10
2014,09,14,14,22,29.10
2014,09,14,14,23,29.10
2014,09,14,14,24,29.10
2014,09,14,14,25,29.10
2014,09,14,14,26,29.10
2014,09,14,14,27,29.10
2014,09,14,14,28,29.10
2014,09,14,14,29,29.10
2014,09,14,14,30,29.10
2014,09,14,14,31,29.10
2014,09,14,14,32,29.20
2014,09,14,14,33,29.20
2014,09,14,14,34,29.20
2014,09,14,14,35,29.20
2014,09,14,14,36,29.20
2014,09,14,14,37,29.20
2014,09,14,14,38,29.20
2014,09,14,14,39,29.20
2014,09,14,14,40,29.20
2014,09,14,14,41,29.20
2014,09,14,14,42,29.30
2014,09,14,14,43,29.20
2014,09,14,14,44,29.20
2014,09,14,14,45,29.20
2014,09,14,14,46,29.20
2014,09,14,14,47,29.20
2014,09,14,14,48,29.20
2014,09,14,14,49,29.20
2014,09,14,14,50,29.20
2014,09,14,14,51,29.20
2014,09,14,14,52,29.20
2014,09,14,14,53,29.20
2014,09,14,14,54,29.20
2014,09,14,14,55,29.20
2014,09,14,14,56,29.20
2014,09,14,14,57,29.20
2014,09,14,14,58,29.20
2014,09,14,14,59,29.20
2014,09,14,15,00,29.30
2014,09,14,15,01,29.20
2014,09,14,15,02,29.30
2014,09,14,15,03,29.30
2014,09,14,15,04,29.30
2014,09,14,15,05,29.30
2014,09,14,15,06,29.30
2014,09,14,15,07,29.20
2014,09,14,15,08,29.30
2014,09,14,15,09,29.30
2014,09,14,15,10,29.30
2014,09,14,15,11,29.30
2014,09,14,15,12,29.30
2014,09,14,15,13,29.20
2014,09,14,15,14,29.30
2014,09,14,15,15,29.30
2014,09,14,15,16,29.30
2014,09,14,15,17,29.30
2014,09,14,15,18,29.30
2014,09,14,15,19,29.30
2014,09,14,15,20,29.30
2014,09,14,15,21,29.30
2014,09,14,15,22,29.30
2014,09,14,15,23,29.40
2014,09,14,15,24,29.40
2014,09,14,15,25,29.40
2014,09,14,15,26,29.40
2014,09,14,15,27,29.40
2014,09,14,15,28,29.40
2014,09,14,15,29,29.50
2014,09,14,15,30,29.50
2014,09,14,15,31,29.50
2014,09,14,15,32,29.50
2014,09,14,15,33,29.40
2014,09,14,15,34,29.40
2014,09,14,15,35,29.40
2014,09,14,15,36,29.40
2014,09,14,15,37,29.40
2014,09,14,15,38,29.30
2014,09,14,15,39,29.30
2014,09,14,15,40,29.30
2014,09,14,15,41,29.30
2014,09,14,15,42,29.30
2014,09,14,15,43,29.40
2014,09,14,15,44,29.40
2014,09,14,15,45,29.40
2014,09,14,15,46,29.40
2014,09,14,15,47,29.40
2014,09,14,15,48,29.40
2014,09,14,15,49,29.50
2014,09,14,15,50,29.50
2014,09,14,15,51,29.60
2014,09,14,15,52,29.60
2014,09,14,15,53,29.60
2014,09,14,15,54,29.60
2014,09,14,15,55,29.60
2014,09,14,15,56,29.60
2014,09,14,15,57,29.70
2014,09,14,15,58,29.70
2014,09,14,15,59,29.70
2014,09,14,16,00,29.80
2014,09,14,16,01,29.80
2014,09,14,16,02,29.80
2014,09,14,16,03,29.80
2014,09,14,16,05,29.70
2014,09,14,16,06,29.70
2014,09,14,16,07,29.60
2014,09,14,16,08,29.60
2014,09,14,16,09,29.50
2014,09,14,16,10,29.40
2014,09,14,16,11,29.40
2014,09,14,16,12,29.40
2014,09,14,16,13,29.40
2014,09,14,16,14,29.40
2014,09,14,16,15,29.40
2014,09,14,16,17,29.30
2014,09,14,16,18,29.30
2014,09,14,16,19,29.30
2014,09,14,16,20,29.30
2014,09,14,16,21,29.20
2014,09,14,16,22,29.20
2014,09,14,16,23,29.20
2014,09,14,16,24,29.20
2014,09,14,16,25,29.20
2014,09,14,16,26,29.20
2014,09,14,16,27,29.20
2014,09,14,16,28,29.20
2014,09,14,16,29,29.20
2014,09,14,16,30,29.20
2014,09,14,16,31,29.20
2014,09,14,16,32,29.20
2014,09,14,16,33,29.20
2014,09,14,16,34,29.20
2014,09,14,16,35,29.20
2014,09,14,16,36,29.20
2014,09,14,16,37,29.20
2014,09,14,16,38,29.20
2014,09,14,16,39,29.20
2014,09,14,16,40,29.20
2014,09,14,16,41,29.20
2014,09,14,16,42,29.20
2014,09,14,16,43,29.30
2014,09,14,16,44,29.20
2014,09,14,16,45,29.20
2014,09,14,16,46,29.20
2014,09,14,16,47,29.20
2014,09,14,16,48,29.20
2014,09,14,16,49,29.20
2014,09,14,16,50,29.20
2014,09,14,16,51,29.10
2014,09,14,16,52,29.10
2014,09,14,16,53,29.10
2014,09,14,16,54,29.00
2014,09,14,16,55,28.90
2014,09,14,16,56,28.90
2014,09,14,16,57,28.90
2014,09,14,16,58,28.90
2014,09,14,16,59,28.90
2014,09,14,17,00,28.90
2014,09,14,17,01,28.90
2014,09,14,17,02,28.80
2014,09,14,17,03,28.80
2014,09,14,17,04,28.80
2014,09,14,17,05,28.80
2014,09,14,17,06,28.80
2014,09,14,17,07,28.80
2014,09,14,17,08,28.80
2014,09,14,17,09,28.80
2014,09,14,17,10,28.80
2014,09,14,17,11,28.70
2014,09,14,17,12,28.70
2014,09,14,17,13,28.70
2014,09,14,17,14,28.60
2014,09,14,17,15,28.60
2014,09,14,17,16,28.60
2014,09,14,17,17,28.60
2014,09,14,17,18,28.60
2014,09,14,17,19,28.60
2014,09,14,17,20,28.50
2014,09,14,17,21,28.50
2014,09,14,17,22,28.40
2014,09,14,17,23,28.40
2014,09,14,17,24,28.40
2014,09,14,17,25,28.40
2014,09,14,17,26,28.40
2014,09,14,17,27,28.40
2014,09,14,17,29,28.30
2014,09,14,17,30,28.30
2014,09,14,17,31,28.30
2014,09,14,17,33,28.30
2014,09,14,17,34,28.20
2014,09,14,17,35,28.20
2014,09,14,17,36,28.20
2014,09,14,17,37,28.20
2014,09,14,17,38,28.20
2014,09,14,17,39,28.10
2014,09,14,17,40,28.10
2014,09,14,17,41,28.10
2014,09,14,17,42,28.10
2014,09,14,17,43,28.00
2014,09,14,17,44,28.00
2014,09,14,17,46,27.90
2014,09,14,17,47,27.90
2014,09,14,17,48,27.90
2014,09,14,17,49,27.90
2014,09,14,17,50,27.90